THORAD AGENA D DEB, 5146

Orbit data source: Space-Track

THORAD AGENA D DEB, 5146 is space debris in SSO originally from a launch on Wed, 08 Apr 1970 UTC launched from the Air Force Western Test Range (AFWTR). Debris objects in space refer to the collection of defunct objects orbiting the Earth. Examples of debris include non-operational satellites, rocket bodies, and fragments generated from explosions, collisions, or faulty payload assembly.

Loading next visibility...
Identifier
5146, 1970-025JQ
Orbit
SSO
Country
Flag of USUS
Related business
Manufacturer
Unknown
Mission
Spacecraft
Bus & Motor
Unknown
Mass
Unknown
Launch date (UTC)
1970-04-08 (56 years ago)
Launch vehicle
Unknown
Launch site
Air Force Western Test Range (AFWTR)
Object type
Payload
Rocket body
Debris
Shape & HBR
Unknown shape, 0.1 m
Radar Cross Section
Medium (>0.1 m² and <1 m²)

Expand to show TLE details & history
Last TLE update: 23 hours ago

TLE from 23 hours ago
0 THORAD AGENA D DEB
1 05146U 70025JQ  26208.10427551  .00000078  00000-0  16015-3 0  9994
2 05146 100.0293  73.8385 0042248 278.2664 235.9816 13.62766600794744
Epoch: 2026-07-27T02:30Z
TLE epoch observation values (Epoch: 2026-07-27T02:30:09.404Z)
Latitude
25.75554°
Longitude
-83.62386°
Altitude
1,046.262 km
Speed
7.322 km/s
True Right ascension
17h 14m 49s
True Declination
25° 37' 35"
Sunlit
Object was in daylight at epoch
Visualization orbit readout
Latitude
Unknown
Longitude
Unknown
Altitude
Unknown
Speed
Unknown
Apparent Right ascension
Unknown
Apparent Declination
Unknown
Sunlit
N/A
Visualization observer readout
Local Sidereal Time
14:23:47
Azimuth
Unknown
Elevation
Unknown
Doppler factor
Unknown
Orbital elements
Apogee altitude
1,054.224 km
Perigee altitude
991.688 km
Semi-major axis
7,401.093 km
Eccentricity
0.00422
Inclination
100.0293°
RAAN
73.8385°
Arg. of periapsis
278.2664°
True anomaly
235.58151°
Mean anomaly
235.9816°
Eccentric anomaly
235.78144°
Mean motion
3.40878 °/min
Orbital period
105.61 mins
BSTAR
0.00016015

Documentation

Showing up to 5 results
|